DMSP 5D-2 F13 DEB, 40521

Orbit data source: Space-Track

DMSP 5D-2 F13 DEB, 40521 is space debris in SSO originally from a launch on Fri, 24 Mar 1995 UTC launched from the Air Force Western Test Range (AFWTR). Debris objects in space refer to the collection of defunct objects orbiting the Earth. Examples of debris include non-operational satellites, rocket bodies, and fragments generated from explosions, collisions, or faulty payload assembly.

Loading next visibility...
Identifier
40521, 1995-015DH
Orbit
SSO
Country
Flag of USUS
Related business
Manufacturer
Unknown
Mission
Spacecraft
Bus & Motor
Unknown
Mass
Unknown
Launch date (UTC)
1995-03-24 (31 years ago)
Launch vehicle
Unknown
Launch site
Air Force Western Test Range (AFWTR)
Object type
Payload
Rocket body
Debris
Shape & HBR
Unknown shape, 0.1 m
Radar Cross Section
Small (<0.1 m²)

Expand to show TLE details & history
Last TLE update: 2 days ago

TLE from 2 days ago
0 DMSP 5D-2 F13 DEB
1 40521U 95015DH  25339.44548432  .00023777  00000-0  50695-2 0  9991
2 40521  98.5990  53.0948 0022306 340.3461  19.6876 14.58738821559976
Epoch: 2025-12-05T10:41Z
TLE epoch observation values (Epoch: 2025-12-05T10:41:29.845Z)
Latitude
0.00006°
Longitude
178.23297°
Altitude
685.361 km
Speed
7.522 km/s
True Right ascension
03h 32m 22s
True Declination
0° 00' 00"
Sunlit
Object was in full shadow at epoch
Visualization orbit readout
Latitude
Unknown
Longitude
Unknown
Altitude
Unknown
Speed
Unknown
Apparent Right ascension
Unknown
Apparent Declination
Unknown
Sunlit
N/A
Visualization observer readout
Local Sidereal Time
02:32:27
Azimuth
Unknown
Elevation
Unknown
Doppler factor
Unknown
Orbital elements
Apogee altitude
710.127 km
Perigee altitude
678.575 km
Semi-major axis
7,072.488 km
Eccentricity
0.00223
Inclination
98.599°
RAAN
53.0948°
Arg. of periapsis
340.3461°
True anomaly
19.77394°
Mean anomaly
19.6876°
Eccentric anomaly
19.73075°
Mean motion
3.64909 °/min
Orbital period
98.65 mins
BSTAR
0.0050695

Documentation

Showing up to 5 results
|